Weather in Nizhny Zhirim

Russia / Republic of Buryatia     51°25′25″N   107°11′54″E
temp.,
°C
wind,
m/s
gust,
m/s
humid.,
%
clouds,
%
prec.,
mm/h
press.,
hPa
HPBL,
m
11 may, tue
tue1123:00+3wsw238286 0.0 101449
02:00+2w2390100 0.2 1014145
05:00+3w1292100 0.8 1014234
08:00+4w348387 0.8 1015508
11:00+7wnw466874 0.1 10151004
14:00+11nw574681 0.2 10141963
17:00+12nw56476 0.3 10131545
20:00+8w346393 0.3 101467
12 may, wed
wed1223:00+5wsw227253 0.0 101519
02:00+4wsw22755 0.0 101521
05:00+3sw22785 0.0 101418
08:00+8wsw35545 0.0 1013375
11:00+13wnw794169 0.4 10102365
14:00+12nw685369 1.1 10101571
17:00+11nw46475 0.3 10101473
20:00+8wnw46585 0.4 1012209
13 may, thu
thu1323:00+3wnw236852 0.0 101438
02:00+2wsw227890 0.0 101415
05:000nw228727 0.1 101512
08:00+5nw474819 0.1 10151749
11:00+7nw7834100 0.1 10142434
14:00+8nw6830100 0.1 10142853
17:00+8nw783118 0.0 10142322
20:00+5nnw46445 0.0 1015181
14 may, fri
fri1423:00+2w21551 0.0 101710
02:000wsw22640 0.0 101810
05:00−1sw11680 0.0 101810
08:00+5wsw22500 0.0 1018334
11:00+10w12360 0.0 10161320
14:00+14sw12270 0.0 10131864
17:00+15sw33241 0.0 10112105
20:00+11s11352 0.0 101210
15 may, sat
sat1523:00+7sse33355 0.0 101420
02:00+5s33445 0.0 101428
05:00+4s225047 0.0 101419
08:00+10sw363593 0.0 1014517
11:00+15wsw5627100 0.0 10131283
14:00+15w773993 0.0 10121320
17:00+15nw34415 0.0 10111146
20:00+11wnw3456100 0.0 101388